This is the latest recevied weather packets stored in our database for station/object K7LDN-13. If no packets are shown the sender has not sent any weather packets the latest 10 day(s).
| Time | Temp. | Humidity | Pressure | Rain* | Wind** | Luminosity | Snow |
|---|---|---|---|---|---|---|---|
| 1777741000 | 17.22° C | 29% | 1023.5 hPa | 0 mm | - | 722 W/m² | - |
| 1777740698 | 17.22° C | 29% | 1023.8 hPa | 0 mm | - | 703 W/m² | - |
| 1777740393 | 16.67° C | 30% | 1023.7 hPa | 0 mm | - | 693 W/m² | - |
| 1777740091 | 16.67° C | 31% | 1023.7 hPa | 0 mm | - | 683 W/m² | - |
| 1777739787 | 16.11° C | 31% | 1024 hPa | 0 mm | - | 671 W/m² | - |
| 1777739484 | 16.67° C | 32% | 1023.7 hPa | 0 mm | - | 665 W/m² | - |
| 1777739180 | 15.56° C | 34% | 1023.8 hPa | 0 mm | - | 646 W/m² | - |
| 1777738878 | 15.56° C | 34% | 1023.8 hPa | 0 mm | - | 645 W/m² | - |
| 1777738575 | 15.56° C | 34% | 1024 hPa | 0 mm | - | 621 W/m² | - |
| 1777738272 | 15.56° C | 36% | 1024 hPa | 0 mm | - | 618 W/m² | - |
| 1777737970 | 15.56° C | 36% | 1023.7 hPa | 0 mm | - | 602 W/m² | - |
| 1777737668 | 15.56° C | 35% | 1024 hPa | 0 mm | - | 586 W/m² | - |
| 1777737366 | 15° C | 37% | 1023.8 hPa | 0 mm | - | 572 W/m² | - |
| 1777737063 | 15° C | 40% | 1023.8 hPa | 0 mm | - | 557 W/m² | - |
| 1777736758 | 14.44° C | 42% | 1023.8 hPa | 0 mm | - | 538 W/m² | - |
| 1777736131 | 13.89° C | 45% | 1023.7 hPa | 0 mm | - | 504 W/m² | - |
| 1777735828 | 13.89° C | 47% | 1023.8 hPa | 0 mm | - | 487 W/m² | - |
| 1777735525 | 13.33° C | 47% | 1024.1 hPa | 0 mm | - | 472 W/m² | - |
| 1777735223 | 13.33° C | 44% | 1024 hPa | 0 mm | - | 455 W/m² | - |
| 1777734919 | 13.33° C | 43% | 1023.8 hPa | 0 mm | - | 441 W/m² | - |
| 1777734617 | 12.78° C | 43% | 1023.8 hPa | 0 mm | - | 430 W/m² | - |
| 1777734314 | 12.78° C | 43% | 1023.8 hPa | 0 mm | - | 416 W/m² | - |
| 1777734010 | 12.78° C | 42% | 1024.1 hPa | 0 mm | - | 395 W/m² | - |
| 1777733706 | 12.78° C | 41% | 1024 hPa | 0 mm | - | 383 W/m² | - |
| 1777733403 | 12.78° C | 40% | 1024 hPa | 0 mm | - | 360 W/m² | - |
* Rain latest hour (hover to see other rain measurements)
** Current wind speed in m/s (hover to see current wind gust speed)